Time,TemperatureF,DewpointF,PressureIn,WindDirection,WindDirectionDegrees,WindSpeedMPH,WindSpeedGustMPH,Humidity,HourlyPrecipIn,Conditions,Clouds,dailyrainin,SoftwareType,DateUTC
2013-06-20 00:00:00,72.5,68.1,29.85,SSW,202,0.0,0.0,86,0.00,,---,0.00,VWS V14.01,2013-06-20 04:00:00,
2013-06-20 00:01:00,72.3,67.9,29.85,SSW,202,0.0,0.0,86,0.00,,---,0.00,VWS V14.01,2013-06-20 04:01:00,
2013-06-20 00:05:00,72.3,67.9,29.85,SW,225,0.0,0.0,86,0.00,,---,0.00,VWS V14.01,2013-06-20 04:05:00,
2013-06-20 00:06:00,72.3,67.9,29.85,SW,225,0.0,0.0,86,0.00,,---,0.00,VWS V14.01,2013-06-20 04:06:00,
2013-06-20 00:10:00,72.3,67.9,29.85,SW,225,0.0,0.0,86,0.00,,---,0.00,VWS V14.01,2013-06-20 04:10:00,
2013-06-20 00:11:00,72.3,67.9,29.85,SW,225,0.0,0.0,86,0.00,,---,0.00,VWS V14.01,2013-06-20 04:11:00,
2013-06-20 00:15:00,72.3,67.9,29.85,SW,225,0.0,0.0,86,0.00,,---,0.00,VWS V14.01,2013-06-20 04:15:00,
2013-06-20 00:16:00,72.3,67.9,29.85,SW,225,0.0,0.0,86,0.00,,---,0.00,VWS V14.01,2013-06-20 04:16:00,
2013-06-20 00:20:00,72.3,68.2,29.85,SW,225,0.0,0.0,87,0.00,,---,0.00,VWS V14.01,2013-06-20 04:20:00,
2013-06-20 00:25:00,72.1,68.1,29.85,SW,225,0.0,0.0,87,0.00,,---,0.00,VWS V14.01,2013-06-20 04:25:00,
2013-06-20 00:30:00,72.1,67.7,29.88,ESE,112,1.3,1.3,86,0.00,,---,0.00,VWS V14.01,2013-06-20 04:30:00,
2013-06-20 00:35:00,72.0,67.9,29.88,SSE,158,0.0,1.3,87,0.00,,---,0.00,VWS V14.01,2013-06-20 04:35:00,
2013-06-20 00:40:00,71.8,67.7,29.88,SSE,158,0.0,0.0,87,0.00,,---,0.00,VWS V14.01,2013-06-20 04:40:00,
2013-06-20 00:45:00,71.6,67.5,29.88,South,180,0.0,0.0,87,0.00,,---,0.00,VWS V14.01,2013-06-20 04:45:00,
2013-06-20 00:50:00,71.8,68.0,29.88,WSW,248,0.0,0.0,88,0.00,,---,0.00,VWS V14.01,2013-06-20 04:50:00,
2013-06-20 00:55:00,71.8,68.0,29.88,WSW,248,0.0,0.0,88,0.00,,---,0.00,VWS V14.01,2013-06-20 04:55:00,
2013-06-20 01:00:00,71.8,68.4,29.85,SSW,202,0.0,0.0,89,0.00,,---,0.00,VWS V14.01,2013-06-20 05:00:00,
2013-06-20 01:05:00,71.8,68.4,29.85,SSE,158,0.0,0.0,89,0.00,,---,0.00,VWS V14.01,2013-06-20 05:05:00,
2013-06-20 01:10:00,71.6,67.9,29.85,SSE,158,0.0,0.0,88,0.00,,---,0.00,VWS V14.01,2013-06-20 05:10:00,
2013-06-20 01:15:00,71.6,68.2,29.85,SSE,158,0.0,0.0,89,0.00,,---,0.00,VWS V14.01,2013-06-20 05:15:00,
2013-06-20 01:20:00,71.6,68.2,29.85,SSE,158,0.0,0.0,89,0.00,,---,0.00,VWS V14.01,2013-06-20 05:20:00,
2013-06-20 01:25:00,71.4,68.0,29.85,SSE,158,0.0,0.0,89,0.00,,---,0.00,VWS V14.01,2013-06-20 05:25:00,
2013-06-20 01:30:00,71.2,68.2,29.85,SE,135,0.0,0.0,90,0.00,,---,0.00,VWS V14.01,2013-06-20 05:30:00,
2013-06-20 01:35:00,71.2,68.2,29.85,SSE,158,0.0,0.0,90,0.00,,---,0.00,VWS V14.01,2013-06-20 05:35:00,
2013-06-20 01:40:00,71.4,68.3,29.85,SSE,158,0.0,0.0,90,0.00,,---,0.00,VWS V14.01,2013-06-20 05:40:00,
2013-06-20 01:45:00,71.4,68.3,29.85,SSE,158,0.0,0.0,90,0.00,,---,0.00,VWS V14.01,2013-06-20 05:45:00,
2013-06-20 01:50:00,71.4,68.7,29.85,SSE,158,0.0,0.0,91,0.00,,---,0.00,VWS V14.01,2013-06-20 05:50:00,
2013-06-20 01:55:00,71.2,68.5,29.85,SSE,158,0.0,0.0,91,0.00,,---,0.00,VWS V14.01,2013-06-20 05:55:00,
2013-06-20 02:00:00,71.2,68.5,29.85,South,180,0.0,0.0,91,0.00,,---,0.00,VWS V14.01,2013-06-20 06:00:00,
2013-06-20 02:05:00,71.2,68.5,29.85,South,180,0.0,0.0,91,0.00,,---,0.00,VWS V14.01,2013-06-20 06:05:00,
2013-06-20 02:10:00,71.4,69.0,29.85,SSE,158,0.0,0.0,92,0.00,,---,0.00,VWS V14.01,2013-06-20 06:10:00,
2013-06-20 02:15:00,71.4,69.0,29.85,SSE,158,0.0,0.0,92,0.00,,---,0.00,VWS V14.01,2013-06-20 06:15:00,
2013-06-20 02:20:00,71.4,69.0,29.85,SSE,158,0.0,0.0,92,0.00,,---,0.00,VWS V14.01,2013-06-20 06:20:00,
2013-06-20 02:25:00,71.2,68.8,29.85,SSE,158,0.0,0.0,92,0.00,,---,0.00,VWS V14.01,2013-06-20 06:25:00,
2013-06-20 02:30:00,71.2,68.8,29.85,SSE,158,0.0,0.0,92,0.00,,---,0.00,VWS V14.01,2013-06-20 06:30:00,
2013-06-20 02:35:00,71.2,68.8,29.85,SSE,158,0.0,0.0,92,0.00,,---,0.00,VWS V14.01,2013-06-20 06:35:00,
2013-06-20 02:40:00,71.1,68.6,29.85,South,180,0.0,0.0,92,0.00,,---,0.00,VWS V14.01,2013-06-20 06:40:00,
2013-06-20 02:45:00,71.2,69.1,29.85,SW,225,0.0,0.0,93,0.00,,---,0.00,VWS V14.01,2013-06-20 06:45:00,
2013-06-20 02:50:00,71.2,69.1,29.85,SW,225,0.0,0.0,93,0.00,,---,0.00,VWS V14.01,2013-06-20 06:50:00,
2013-06-20 02:55:00,71.2,69.4,29.85,SW,225,0.0,0.0,94,0.00,,---,0.00,VWS V14.01,2013-06-20 06:55:00,
2013-06-20 03:00:00,71.2,69.1,29.82,SW,225,0.0,0.0,93,0.00,,---,0.00,VWS V14.01,2013-06-20 07:00:00,
2013-06-20 03:05:00,71.1,68.9,29.82,SE,135,0.0,0.0,93,0.00,,---,0.00,VWS V14.01,2013-06-20 07:05:00,
2013-06-20 03:10:00,70.9,68.8,29.82,SSE,158,0.0,0.0,93,0.00,,---,0.00,VWS V14.01,2013-06-20 07:10:00,
2013-06-20 03:15:00,70.9,68.8,29.82,SSE,158,0.0,0.0,93,0.00,,---,0.00,VWS V14.01,2013-06-20 07:15:00,
2013-06-20 03:20:00,71.1,68.9,29.82,SSE,158,0.0,0.0,93,0.00,,---,0.00,VWS V14.01,2013-06-20 07:20:00,
2013-06-20 03:25:00,71.1,69.2,29.82,SSE,158,0.0,0.0,94,0.00,,---,0.00,VWS V14.01,2013-06-20 07:25:00,
2013-06-20 03:30:00,71.1,69.2,29.82,SSE,158,0.0,0.0,94,0.00,,---,0.00,VWS V14.01,2013-06-20 07:30:00,
2013-06-20 03:35:00,71.1,69.2,29.82,SSE,158,0.0,0.0,94,0.00,,---,0.00,VWS V14.01,2013-06-20 07:35:00,
2013-06-20 03:40:00,70.9,69.1,29.82,SSE,158,0.0,0.0,94,0.00,,---,0.00,VWS V14.01,2013-06-20 07:40:00,
2013-06-20 03:45:00,70.9,69.1,29.82,SSE,158,0.0,0.0,94,0.00,,---,0.00,VWS V14.01,2013-06-20 07:45:00,
2013-06-20 03:50:00,71.1,69.2,29.82,SSE,158,0.0,0.0,94,0.00,,---,0.00,VWS V14.01,2013-06-20 07:50:00,
2013-06-20 03:55:00,71.2,69.4,29.82,SSE,158,0.0,0.0,94,0.00,,---,0.00,VWS V14.01,2013-06-20 07:55:00,
2013-06-20 04:00:00,71.2,69.4,29.82,SSE,158,0.0,0.0,94,0.00,,---,0.00,VWS V14.01,2013-06-20 08:00:00,
2013-06-20 04:05:00,71.4,69.9,29.82,SSE,158,0.0,0.0,95,0.00,,---,0.00,VWS V14.01,2013-06-20 08:05:00,
2013-06-20 04:10:00,71.2,69.7,29.82,South,180,0.0,0.0,95,0.00,,---,0.00,VWS V14.01,2013-06-20 08:10:00,
2013-06-20 04:15:00,71.6,69.8,29.82,South,180,0.0,0.0,94,0.00,,---,0.00,VWS V14.01,2013-06-20 08:15:00,
2013-06-20 04:20:00,71.4,69.9,29.82,South,180,0.0,0.0,95,0.00,,---,0.00,VWS V14.01,2013-06-20 08:20:00,
2013-06-20 04:25:00,71.4,69.9,29.82,South,180,0.0,0.0,95,0.00,,---,0.00,VWS V14.01,2013-06-20 08:25:00,
2013-06-20 04:30:00,71.2,69.4,29.82,South,180,0.0,0.0,94,0.00,,---,0.00,VWS V14.01,2013-06-20 08:30:00,
2013-06-20 04:35:00,71.4,69.9,29.82,South,180,0.0,0.0,95,0.00,,---,0.00,VWS V14.01,2013-06-20 08:35:00,
2013-06-20 04:37:00,71.4,69.9,29.82,South,180,0.0,0.0,95,0.00,,---,0.00,VWS V14.01,2013-06-20 08:37:00,
2013-06-20 04:40:00,71.1,69.6,29.82,South,180,0.0,0.0,95,0.00,,---,0.00,VWS V14.01,2013-06-20 08:40:00,
2013-06-20 04:42:00,71.1,69.6,29.82,South,180,0.0,0.0,95,0.00,,---,0.00,VWS V14.01,2013-06-20 08:42:00,
2013-06-20 04:45:00,71.1,69.6,29.82,SE,135,0.0,0.0,95,0.00,,---,0.00,VWS V14.01,2013-06-20 08:45:00,
2013-06-20 04:47:00,71.1,69.6,29.82,ESE,112,0.0,0.0,95,0.00,,---,0.00,VWS V14.01,2013-06-20 08:47:00,
2013-06-20 04:50:00,71.1,69.6,29.82,ESE,112,0.0,0.0,95,0.00,,---,0.00,VWS V14.01,2013-06-20 08:50:00,
2013-06-20 04:52:00,71.2,69.7,29.82,NNW,338,0.0,0.0,95,0.00,,---,0.00,VWS V14.01,2013-06-20 08:52:00,
2013-06-20 04:55:00,71.2,69.7,29.82,NNW,338,0.0,0.0,95,0.00,,---,0.00,VWS V14.01,2013-06-20 08:55:00,
2013-06-20 04:57:00,71.2,69.7,29.82,NNW,338,0.0,0.0,95,0.00,,---,0.00,VWS V14.01,2013-06-20 08:57:00,
2013-06-20 05:00:00,71.4,69.9,29.82,NNW,338,0.0,0.0,95,0.00,,---,0.00,VWS V14.01,2013-06-20 09:00:00,
2013-06-20 05:02:00,71.2,69.7,29.82,NNW,338,0.0,0.0,95,0.00,,---,0.00,VWS V14.01,2013-06-20 09:02:00,
2013-06-20 05:05:00,71.2,69.7,29.82,NNW,338,0.0,0.0,95,0.00,,---,0.00,VWS V14.01,2013-06-20 09:05:00,
2013-06-20 05:07:00,71.4,69.9,29.82,NNW,338,0.0,0.0,95,0.00,,---,0.00,VWS V14.01,2013-06-20 09:07:00,
2013-06-20 05:10:00,71.4,69.9,29.82,NNW,338,0.0,0.0,95,0.00,,---,0.00,VWS V14.01,2013-06-20 09:10:00,
2013-06-20 05:12:00,71.2,69.7,29.82,NNW,338,0.0,0.0,95,0.00,,---,0.00,VWS V14.01,2013-06-20 09:12:00,
2013-06-20 05:15:00,71.2,69.7,29.82,NNW,338,0.0,0.0,95,0.00,,---,0.00,VWS V14.01,2013-06-20 09:15:00,
2013-06-20 05:17:00,71.2,69.7,29.82,NNW,338,0.0,0.0,95,0.00,,---,0.00,VWS V14.01,2013-06-20 09:17:00,
2013-06-20 05:20:00,71.2,69.7,29.82,NNW,338,0.0,0.0,95,0.00,,---,0.00,VWS V14.01,2013-06-20 09:20:00,
2013-06-20 05:22:00,71.1,69.6,29.82,NNW,338,0.0,0.0,95,0.00,,---,0.00,VWS V14.01,2013-06-20 09:22:00,
2013-06-20 05:25:00,71.1,69.6,29.82,NNW,338,0.0,0.0,95,0.00,,---,0.00,VWS V14.01,2013-06-20 09:25:00,
2013-06-20 05:27:00,71.1,69.6,29.82,NNW,338,0.0,0.0,95,0.00,,---,0.00,VWS V14.01,2013-06-20 09:27:00,
2013-06-20 05:30:00,71.1,69.6,29.82,NNW,338,0.0,0.0,95,0.00,,---,0.00,VWS V14.01,2013-06-20 09:30:00,
2013-06-20 05:32:00,71.1,69.6,29.82,NNW,338,0.0,0.0,95,0.00,,---,0.00,VWS V14.01,2013-06-20 09:32:00,
2013-06-20 05:35:00,71.1,69.6,29.82,NNW,338,0.0,0.0,95,0.00,,---,0.00,VWS V14.01,2013-06-20 09:35:00,
2013-06-20 05:37:00,71.1,69.6,29.82,NNW,338,0.0,0.0,95,0.00,,---,0.00,VWS V14.01,2013-06-20 09:37:00,
2013-06-20 05:40:00,71.1,69.6,29.82,NNW,338,0.0,0.0,95,0.00,,---,0.00,VWS V14.01,2013-06-20 09:40:00,
2013-06-20 05:42:00,70.9,69.4,29.82,NNW,338,0.0,0.0,95,0.00,,---,0.00,VWS V14.01,2013-06-20 09:42:00,
2013-06-20 05:45:00,70.9,69.7,29.85,NNW,338,0.0,0.0,96,0.00,,---,0.00,VWS V14.01,2013-06-20 09:45:00,
2013-06-20 05:47:00,70.9,69.7,29.85,NNW,338,0.0,0.0,96,0.00,,---,0.00,VWS V14.01,2013-06-20 09:47:00,
2013-06-20 05:50:00,70.9,69.7,29.85,ESE,112,0.0,0.0,96,0.00,,---,0.00,VWS V14.01,2013-06-20 09:50:00,
2013-06-20 05:52:00,70.9,69.7,29.85,ESE,112,0.0,0.0,96,0.00,,---,0.00,VWS V14.01,2013-06-20 09:52:00,
2013-06-20 05:55:00,70.7,69.5,29.85,ESE,112,0.0,0.0,96,0.00,,---,0.00,VWS V14.01,2013-06-20 09:55:00,
2013-06-20 05:57:00,70.7,69.2,29.85,ESE,112,0.0,0.0,95,0.00,,---,0.00,VWS V14.01,2013-06-20 09:57:00,
2013-06-20 06:00:00,70.9,69.7,29.85,ESE,112,0.0,0.0,96,0.00,,---,0.00,VWS V14.01,2013-06-20 10:00:00,
2013-06-20 06:02:00,70.9,69.7,29.85,ESE,112,0.0,0.0,96,0.00,,---,0.00,VWS V14.01,2013-06-20 10:02:00,
2013-06-20 06:05:00,70.9,69.7,29.85,ESE,112,0.0,0.0,96,0.00,,---,0.00,VWS V14.01,2013-06-20 10:05:00,
2013-06-20 06:07:00,70.9,69.7,29.85,ESE,112,0.0,0.0,96,0.00,,---,0.00,VWS V14.01,2013-06-20 10:07:00,
2013-06-20 06:10:00,70.7,69.2,29.85,ESE,112,0.0,0.0,95,0.00,,---,0.00,VWS V14.01,2013-06-20 10:10:00,
2013-06-20 06:12:00,70.7,69.2,29.85,ESE,112,0.0,0.0,95,0.00,,---,0.00,VWS V14.01,2013-06-20 10:12:00,
2013-06-20 06:15:00,70.7,69.5,29.85,ENE,68,0.0,0.0,96,0.00,,---,0.00,VWS V14.01,2013-06-20 10:15:00,
2013-06-20 06:17:00,70.7,69.5,29.85,ENE,68,0.0,0.0,96,0.00,,---,0.00,VWS V14.01,2013-06-20 10:17:00,
2013-06-20 06:20:00,70.7,69.5,29.85,ENE,68,0.0,0.0,96,0.00,,---,0.00,VWS V14.01,2013-06-20 10:20:00,
2013-06-20 06:22:00,70.7,69.5,29.85,ENE,68,0.0,0.0,96,0.00,,---,0.00,VWS V14.01,2013-06-20 10:22:00,
2013-06-20 06:25:00,70.7,69.5,29.85,ENE,68,0.0,0.0,96,0.00,,---,0.00,VWS V14.01,2013-06-20 10:25:00,
2013-06-20 06:27:00,70.7,69.5,29.85,ENE,68,0.0,0.0,96,0.00,,---,0.00,VWS V14.01,2013-06-20 10:27:00,
2013-06-20 06:30:00,70.7,69.5,29.88,SSE,158,0.0,0.0,96,0.00,,---,0.00,VWS V14.01,2013-06-20 10:30:00,
2013-06-20 06:32:00,70.7,69.5,29.88,SSE,158,0.0,0.0,96,0.00,,---,0.00,VWS V14.01,2013-06-20 10:32:00,
2013-06-20 06:35:00,70.5,69.3,29.88,SSE,158,0.0,0.0,96,0.00,,---,0.00,VWS V14.01,2013-06-20 10:35:00,
2013-06-20 06:37:00,70.5,69.3,29.88,SSE,158,0.0,0.0,96,0.00,,---,0.00,VWS V14.01,2013-06-20 10:37:00,
2013-06-20 06:40:00,70.3,68.8,29.88,SSE,158,0.0,0.0,95,0.00,,---,0.00,VWS V14.01,2013-06-20 10:40:00,
2013-06-20 06:42:00,70.2,68.7,29.88,SSE,158,0.0,0.0,95,0.00,,---,0.00,VWS V14.01,2013-06-20 10:42:00,
2013-06-20 06:45:00,70.2,68.7,29.88,SSE,158,0.0,0.0,95,0.00,,---,0.00,VWS V14.01,2013-06-20 10:45:00,
2013-06-20 06:47:00,70.2,68.7,29.88,SSE,158,0.0,0.0,95,0.00,,---,0.00,VWS V14.01,2013-06-20 10:47:00,
2013-06-20 06:50:00,70.2,68.7,29.88,SSE,158,0.0,0.0,95,0.00,,---,0.00,VWS V14.01,2013-06-20 10:50:00,
2013-06-20 06:52:00,70.3,69.2,29.88,SSE,158,0.0,0.0,96,0.00,,---,0.00,VWS V14.01,2013-06-20 10:52:00,
2013-06-20 06:55:00,70.7,69.5,29.88,South,180,0.0,0.0,96,0.00,,---,0.00,VWS V14.01,2013-06-20 10:55:00,
2013-06-20 06:57:00,70.9,69.7,29.88,South,180,0.0,0.0,96,0.00,,---,0.00,VWS V14.01,2013-06-20 10:57:00,
2013-06-20 07:00:00,71.4,70.2,29.88,South,180,0.0,0.0,96,0.00,,---,0.00,VWS V14.01,2013-06-20 11:00:00,
2013-06-20 07:02:00,71.8,70.6,29.88,South,180,0.0,0.0,96,0.00,,---,0.00,VWS V14.01,2013-06-20 11:02:00,
2013-06-20 07:05:00,72.3,71.4,29.88,South,180,0.0,0.0,97,0.00,,---,0.00,VWS V14.01,2013-06-20 11:05:00,
2013-06-20 07:07:00,72.3,71.4,29.88,South,180,0.0,0.0,97,0.00,,---,0.00,VWS V14.01,2013-06-20 11:07:00,
2013-06-20 07:10:00,72.9,72.0,29.88,South,180,0.0,0.0,97,0.00,,---,0.00,VWS V14.01,2013-06-20 11:10:00,
2013-06-20 07:12:00,73.0,72.1,29.88,South,180,0.0,0.0,97,0.00,,---,0.00,VWS V14.01,2013-06-20 11:12:00,
2013-06-20 07:15:00,73.0,72.1,29.88,South,180,0.0,0.0,97,0.00,,---,0.00,VWS V14.01,2013-06-20 11:15:00,
2013-06-20 07:17:00,73.2,72.3,29.88,South,180,0.0,0.0,97,0.00,,---,0.00,VWS V14.01,2013-06-20 11:17:00,
2013-06-20 07:20:00,73.6,72.7,29.88,South,180,0.0,0.0,97,0.00,,---,0.00,VWS V14.01,2013-06-20 11:20:00,
2013-06-20 07:22:00,73.8,72.9,29.88,South,180,0.0,0.0,97,0.00,,---,0.00,VWS V14.01,2013-06-20 11:22:00,
2013-06-20 07:25:00,74.1,73.2,29.88,South,180,0.0,0.0,97,0.00,,---,0.00,VWS V14.01,2013-06-20 11:25:00,
2013-06-20 07:27:00,74.5,73.6,29.88,South,180,0.0,0.0,97,0.00,,---,0.00,VWS V14.01,2013-06-20 11:27:00,
2013-06-20 07:30:00,74.8,73.9,29.88,South,180,0.0,0.0,97,0.00,,---,0.00,VWS V14.01,2013-06-20 11:30:00,
2013-06-20 07:32:00,75.2,74.0,29.88,South,180,0.0,0.0,96,0.00,,---,0.00,VWS V14.01,2013-06-20 11:32:00,
2013-06-20 07:35:00,75.6,74.3,29.88,South,180,0.0,1.1,96,0.00,,---,0.00,VWS V14.01,2013-06-20 11:35:00,
2013-06-20 07:37:00,75.9,74.7,29.88,South,180,0.0,0.0,96,0.00,,---,0.00,VWS V14.01,2013-06-20 11:37:00,
2013-06-20 07:40:00,76.1,74.9,29.88,South,180,0.0,0.0,96,0.00,,---,0.00,VWS V14.01,2013-06-20 11:40:00,
2013-06-20 07:42:00,76.5,75.2,29.88,South,180,0.0,0.0,96,0.00,,---,0.00,VWS V14.01,2013-06-20 11:42:00,
2013-06-20 07:45:00,76.8,75.6,29.88,SSE,158,2.0,2.0,96,0.00,,---,0.00,VWS V14.01,2013-06-20 11:45:00,
2013-06-20 07:47:00,77.2,75.6,29.88,SSE,158,0.9,2.0,95,0.00,,---,0.00,VWS V14.01,2013-06-20 11:47:00,
2013-06-20 07:50:00,77.4,75.8,29.88,South,180,0.0,2.0,95,0.00,,---,0.00,VWS V14.01,2013-06-20 11:50:00,
2013-06-20 07:52:00,77.4,75.8,29.88,South,180,0.0,1.6,95,0.00,,---,0.00,VWS V14.01,2013-06-20 11:52:00,
2013-06-20 07:55:00,77.5,75.4,29.88,SSE,158,2.5,2.9,93,0.00,,---,0.00,VWS V14.01,2013-06-20 11:55:00,
2013-06-20 07:57:00,78.1,74.6,29.88,SSE,158,2.0,2.5,89,0.00,,---,0.00,VWS V14.01,2013-06-20 11:57:00,
2013-06-20 08:00:00,78.6,74.8,29.88,SSE,158,1.1,2.5,88,0.00,,---,0.00,VWS V14.01,2013-06-20 12:00:00,
2013-06-20 08:02:00,79.0,75.1,29.88,SE,135,0.0,1.6,88,0.00,,---,0.00,VWS V14.01,2013-06-20 12:02:00,
2013-06-20 08:05:00,79.9,75.7,29.88,SW,225,1.3,1.6,87,0.00,,---,0.00,VWS V14.01,2013-06-20 12:05:00,
2013-06-20 08:07:00,79.7,75.2,29.88,SSE,158,2.5,2.7,86,0.00,,---,0.00,VWS V14.01,2013-06-20 12:07:00,
2013-06-20 08:10:00,79.7,73.4,29.88,SSE,158,1.6,2.7,81,0.00,,---,0.00,VWS V14.01,2013-06-20 12:10:00,
2013-06-20 08:12:00,80.1,73.0,29.88,SSE,158,1.6,2.0,79,0.00,,---,0.00,VWS V14.01,2013-06-20 12:12:00,
2013-06-20 08:15:00,80.4,73.3,29.88,SSE,158,1.6,2.0,79,0.00,,---,0.00,VWS V14.01,2013-06-20 12:15:00,
2013-06-20 08:17:00,80.8,73.3,29.88,SSE,158,0.9,1.6,78,0.00,,---,0.00,VWS V14.01,2013-06-20 12:17:00,
2013-06-20 08:20:00,81.5,74.0,29.88,South,180,0.9,2.0,78,0.00,,---,0.00,VWS V14.01,2013-06-20 12:20:00,
2013-06-20 08:22:00,81.7,73.4,29.88,SSW,202,0.0,2.0,76,0.00,,---,0.00,VWS V14.01,2013-06-20 12:22:00,
2013-06-20 08:25:00,81.9,73.6,29.88,SSE,158,2.0,2.0,76,0.00,,---,0.00,VWS V14.01,2013-06-20 12:25:00,
2013-06-20 08:27:00,81.7,70.9,29.88,SSE,158,1.3,2.5,70,0.00,,---,0.00,VWS V14.01,2013-06-20 12:27:00,
2013-06-20 08:30:00,81.5,69.5,29.88,SSE,158,2.5,2.9,67,0.00,,---,0.00,VWS V14.01,2013-06-20 12:30:00,
2013-06-20 08:32:00,82.2,70.6,29.88,South,180,0.9,2.5,68,0.00,,---,0.00,VWS V14.01,2013-06-20 12:32:00,
2013-06-20 08:35:00,83.3,71.6,29.88,East,90,2.7,2.9,68,0.00,,---,0.00,VWS V14.01,2013-06-20 12:35:00,
2013-06-20 08:37:00,83.8,71.7,29.88,ESE,112,2.0,2.9,67,0.00,,---,0.00,VWS V14.01,2013-06-20 12:37:00,
2013-06-20 08:40:00,84.2,71.6,29.88,SW,225,2.7,2.9,66,0.00,,---,0.00,VWS V14.01,2013-06-20 12:40:00,
2013-06-20 08:42:00,83.3,70.8,29.88,South,180,0.9,2.7,66,0.00,,---,0.00,VWS V14.01,2013-06-20 12:42:00,
2013-06-20 08:45:00,83.8,71.3,29.91,ESE,112,1.1,2.7,66,0.00,,---,0.00,VWS V14.01,2013-06-20 12:45:00,
2013-06-20 08:47:00,84.0,71.4,29.91,South,180,1.1,1.6,66,0.00,,---,0.00,VWS V14.01,2013-06-20 12:47:00,
2013-06-20 08:50:00,83.8,70.4,29.91,SE,135,1.1,2.2,64,0.00,,---,0.00,VWS V14.01,2013-06-20 12:50:00,
2013-06-20 08:52:00,84.4,70.9,29.91,SSE,158,1.3,2.2,64,0.00,,---,0.00,VWS V14.01,2013-06-20 12:52:00,
2013-06-20 08:55:00,85.1,71.6,29.91,East,90,1.6,2.2,64,0.00,,---,0.00,VWS V14.01,2013-06-20 12:55:00,
2013-06-20 08:57:00,84.9,70.0,29.91,East,90,1.1,2.5,61,0.00,,---,0.00,VWS V14.01,2013-06-20 12:57:00,
2013-06-20 09:00:00,85.3,69.8,29.91,South,180,0.0,3.1,60,0.00,,---,0.00,VWS V14.01,2013-06-20 13:00:00,
2013-06-20 09:02:00,85.8,70.8,29.91,SSW,202,0.0,0.0,61,0.00,,---,0.00,VWS V14.01,2013-06-20 13:02:00,
2013-06-20 09:05:00,86.2,70.7,29.91,South,180,0.9,2.0,60,0.00,,---,0.00,VWS V14.01,2013-06-20 13:05:00,
2013-06-20 09:07:00,87.1,72.0,29.91,SW,225,2.2,2.2,61,0.00,,---,0.00,VWS V14.01,2013-06-20 13:07:00,
2013-06-20 09:10:00,86.7,70.7,29.91,South,180,0.0,2.2,59,0.00,,---,0.00,VWS V14.01,2013-06-20 13:10:00,
2013-06-20 09:12:00,87.3,71.2,29.91,NE,45,1.6,1.6,59,0.00,,---,0.00,VWS V14.01,2013-06-20 13:12:00,
2013-06-20 09:15:00,87.8,70.2,29.91,SE,135,0.9,3.4,56,0.00,,---,0.00,VWS V14.01,2013-06-20 13:15:00,
2013-06-20 09:17:00,88.7,69.9,29.91,ENE,68,1.3,3.1,54,0.00,,---,0.00,VWS V14.01,2013-06-20 13:17:00,
2013-06-20 09:20:00,88.9,69.0,29.91,WSW,248,1.6,3.1,52,0.00,,---,0.00,VWS V14.01,2013-06-20 13:20:00,
2013-06-20 09:22:00,89.8,68.7,29.91,East,90,2.2,3.6,50,0.00,,---,0.00,VWS V14.01,2013-06-20 13:22:00,
2013-06-20 09:25:00,90.0,68.2,29.91,ESE,112,0.9,3.6,49,0.00,,---,0.00,VWS V14.01,2013-06-20 13:25:00,
2013-06-20 09:27:00,89.6,67.3,29.91,East,90,2.9,3.4,48,0.00,,---,0.00,VWS V14.01,2013-06-20 13:27:00,
2013-06-20 09:30:00,89.4,67.8,29.91,ENE,68,1.6,3.6,49,0.00,,---,0.00,VWS V14.01,2013-06-20 13:30:00,
2013-06-20 09:32:00,90.3,68.6,29.91,NE,45,2.2,3.1,49,0.00,,---,0.00,VWS V14.01,2013-06-20 13:32:00,
2013-06-20 09:35:00,89.4,65.9,29.91,SSE,158,2.2,3.6,46,0.00,,---,0.00,VWS V14.01,2013-06-20 13:35:00,
2013-06-20 09:37:00,89.8,66.9,29.91,SSE,158,1.6,2.2,47,0.00,,---,0.00,VWS V14.01,2013-06-20 13:37:00,
2013-06-20 09:40:00,90.7,67.7,29.91,NE,45,1.6,2.2,47,0.00,,---,0.00,VWS V14.01,2013-06-20 13:40:00,
2013-06-20 09:42:00,90.7,67.1,29.91,SSE,158,1.1,2.7,46,0.00,,---,0.00,VWS V14.01,2013-06-20 13:42:00,
2013-06-20 09:45:00,90.9,67.2,29.91,ENE,68,2.0,2.7,46,0.00,,---,0.00,VWS V14.01,2013-06-20 13:45:00,
2013-06-20 09:47:00,92.1,67.7,29.91,NNE,22,1.3,2.9,45,0.00,,---,0.00,VWS V14.01,2013-06-20 13:47:00,
2013-06-20 09:50:00,92.7,67.6,29.91,ESE,112,2.9,3.4,44,0.00,,---,0.00,VWS V14.01,2013-06-20 13:50:00,
2013-06-20 09:52:00,92.7,67.6,29.91,East,90,2.7,2.9,44,0.00,,---,0.00,VWS V14.01,2013-06-20 13:52:00,
2013-06-20 09:55:00,91.4,66.4,29.91,WSW,248,1.6,4.0,44,0.00,,---,0.00,VWS V14.01,2013-06-20 13:55:00,
2013-06-20 09:57:00,91.8,66.8,29.91,WSW,248,2.0,2.7,44,0.00,,---,0.00,VWS V14.01,2013-06-20 13:57:00,
2013-06-20 10:00:00,91.9,65.6,29.91,North,0,2.7,3.6,42,0.00,,---,0.00,VWS V14.01,2013-06-20 14:00:00,
2013-06-20 10:02:00,93.2,66.7,29.91,WNW,292,1.6,2.7,42,0.00,,---,0.00,VWS V14.01,2013-06-20 14:02:00,
2013-06-20 10:05:00,93.6,65.6,29.91,East,90,1.6,2.9,40,0.00,,---,0.00,VWS V14.01,2013-06-20 14:05:00,
2013-06-20 10:07:00,94.3,65.5,29.91,East,90,1.1,3.1,39,0.00,,---,0.00,VWS V14.01,2013-06-20 14:07:00,
2013-06-20 10:10:00,94.6,65.9,29.91,North,0,1.3,3.1,39,0.00,,---,0.00,VWS V14.01,2013-06-20 14:10:00,
2013-06-20 10:12:00,95.2,65.6,29.91,West,270,1.3,2.2,38,0.00,,---,0.00,VWS V14.01,2013-06-20 14:12:00,
2013-06-20 10:15:00,94.6,65.9,29.91,SSE,158,1.1,2.5,39,0.00,,---,0.00,VWS V14.01,2013-06-20 14:15:00,
2013-06-20 10:17:00,95.2,65.6,29.91,ESE,112,2.0,2.0,38,0.00,,---,0.00,VWS V14.01,2013-06-20 14:17:00,
2013-06-20 10:20:00,95.7,66.1,29.91,West,270,1.6,2.2,38,0.00,,---,0.00,VWS V14.01,2013-06-20 14:20:00,
2013-06-20 10:22:00,95.4,65.8,29.91,ENE,68,2.5,2.5,38,0.00,,---,0.00,VWS V14.01,2013-06-20 14:22:00,
2013-06-20 10:25:00,95.7,65.3,29.91,WSW,248,0.0,2.9,37,0.00,,---,0.00,VWS V14.01,2013-06-20 14:25:00,
2013-06-20 10:27:00,96.1,65.6,29.91,North,0,1.3,2.7,37,0.00,,---,0.00,VWS V14.01,2013-06-20 14:27:00,
2013-06-20 10:30:00,96.3,65.8,29.91,WSW,248,1.1,2.7,37,0.00,,---,0.00,VWS V14.01,2013-06-20 14:30:00,
2013-06-20 10:32:00,95.0,63.9,29.91,ENE,68,0.0,2.7,36,0.00,,---,0.00,VWS V14.01,2013-06-20 14:32:00,
2013-06-20 10:35:00,96.4,65.2,29.91,WNW,292,2.2,3.1,36,0.00,,---,0.00,VWS V14.01,2013-06-20 14:35:00,
2013-06-20 10:37:00,96.3,64.2,29.91,West,270,1.3,2.7,35,0.00,,---,0.00,VWS V14.01,2013-06-20 14:37:00,
2013-06-20 10:40:00,95.2,62.4,29.91,West,270,1.3,4.0,34,0.00,,---,0.00,VWS V14.01,2013-06-20 14:40:00,
2013-06-20 10:42:00,95.7,62.0,29.91,NNW,338,2.2,3.4,33,0.00,,---,0.00,VWS V14.01,2013-06-20 14:42:00,
2013-06-20 10:45:00,96.3,62.5,29.91,East,90,2.0,3.6,33,0.00,,---,0.00,VWS V14.01,2013-06-20 14:45:00,
2013-06-20 10:47:00,97.2,63.3,29.91,NNW,338,1.3,2.5,33,0.00,,---,0.00,VWS V14.01,2013-06-20 14:47:00,
2013-06-20 10:50:00,96.6,62.8,29.91,West,270,2.0,2.9,33,0.00,,---,0.00,VWS V14.01,2013-06-20 14:50:00,
2013-06-20 10:53:00,97.2,63.3,29.91,NW,315,3.4,3.4,33,0.00,,---,0.00,VWS V14.01,2013-06-20 14:53:00,
2013-06-20 10:55:00,96.4,61.8,29.91,East,90,1.1,3.4,32,0.00,,---,0.00,VWS V14.01,2013-06-20 14:55:00,
2013-06-20 10:58:00,97.2,62.4,29.91,SSE,158,1.3,2.2,32,0.00,,---,0.00,VWS V14.01,2013-06-20 14:58:00,
2013-06-20 11:00:00,97.3,63.4,29.91,WSW,248,1.3,2.2,33,0.00,,---,0.00,VWS V14.01,2013-06-20 15:00:00,
2013-06-20 11:03:00,97.7,62.9,29.91,East,90,2.7,3.1,32,0.00,,---,0.00,VWS V14.01,2013-06-20 15:03:00,
2013-06-20 11:05:00,97.7,62.9,29.91,East,90,2.7,3.1,32,0.00,,---,0.00,VWS V14.01,2013-06-20 15:05:00,
2013-06-20 11:08:00,98.4,63.5,29.91,East,90,3.4,3.4,32,0.00,,---,0.00,VWS V14.01,2013-06-20 15:08:00,
2013-06-20 11:10:00,97.0,60.4,29.91,SSE,158,2.0,3.4,30,0.00,,---,0.00,VWS V14.01,2013-06-20 15:10:00,
2013-06-20 11:13:00,94.1,59.8,29.91,West,270,2.2,2.5,32,0.00,,---,0.00,VWS V14.01,2013-06-20 15:13:00,
2013-06-20 11:15:00,91.4,57.4,29.91,WSW,248,0.0,2.9,32,0.00,,---,0.00,VWS V14.01,2013-06-20 15:15:00,
2013-06-20 11:18:00,90.9,58.6,29.91,NNW,338,0.9,2.0,34,0.00,,---,0.00,VWS V14.01,2013-06-20 15:18:00,
2013-06-20 11:20:00,92.5,59.2,29.91,SW,225,1.1,2.7,33,0.00,,---,0.00,VWS V14.01,2013-06-20 15:20:00,
2013-06-20 11:23:00,94.3,60.8,29.91,NNE,22,0.0,2.0,33,0.00,,---,0.00,VWS V14.01,2013-06-20 15:23:00,
2013-06-20 11:25:00,96.1,62.3,29.91,ENE,68,2.0,2.5,33,0.00,,---,0.00,VWS V14.01,2013-06-20 15:25:00,
2013-06-20 11:28:00,96.8,62.1,29.91,NNE,22,1.1,3.1,32,0.00,,---,0.00,VWS V14.01,2013-06-20 15:28:00,
2013-06-20 11:30:00,97.7,62.0,29.91,East,90,2.5,3.1,31,0.00,,---,0.00,VWS V14.01,2013-06-20 15:30:00,
2013-06-20 11:33:00,98.4,61.7,29.91,East,90,2.0,3.4,30,0.00,,---,0.00,VWS V14.01,2013-06-20 15:33:00,
2013-06-20 11:35:00,98.4,61.7,29.91,SE,135,1.6,3.4,30,0.00,,---,0.00,VWS V14.01,2013-06-20 15:35:00,
2013-06-20 11:38:00,98.4,61.7,29.91,SSE,158,2.0,2.7,30,0.00,,---,0.00,VWS V14.01,2013-06-20 15:38:00,
2013-06-20 11:40:00,98.8,61.0,29.91,WNW,292,1.3,2.7,29,0.00,,---,0.00,VWS V14.01,2013-06-20 15:40:00,
2013-06-20 11:43:00,98.6,59.9,29.91,ESE,112,1.6,3.4,28,0.00,,---,0.00,VWS V14.01,2013-06-20 15:43:00,
2013-06-20 11:45:00,97.0,59.5,29.91,West,270,0.0,3.4,29,0.00,,---,0.00,VWS V14.01,2013-06-20 15:45:00,
2013-06-20 11:48:00,97.9,60.2,29.91,ESE,112,1.6,3.1,29,0.00,,---,0.00,VWS V14.01,2013-06-20 15:48:00,
2013-06-20 11:50:00,98.6,59.9,29.91,SW,225,1.6,3.1,28,0.00,,---,0.00,VWS V14.01,2013-06-20 15:50:00,
2013-06-20 11:53:00,95.9,58.6,29.91,West,270,1.3,2.7,29,0.00,,---,0.00,VWS V14.01,2013-06-20 15:53:00,
2013-06-20 11:55:00,97.5,59.0,29.91,NW,315,2.0,2.7,28,0.00,,---,0.00,VWS V14.01,2013-06-20 15:55:00,
2013-06-20 11:58:00,97.9,59.3,29.91,NNE,22,1.3,3.6,28,0.00,,---,0.00,VWS V14.01,2013-06-20 15:58:00,
2013-06-20 12:00:00,98.8,59.0,29.91,ENE,68,1.3,3.6,27,0.00,,---,0.00,VWS V14.01,2013-06-20 16:00:00,
2013-06-20 12:03:00,99.0,59.2,29.91,SSW,202,0.9,2.0,27,0.00,,---,0.00,VWS V14.01,2013-06-20 16:03:00,
2013-06-20 12:05:00,99.5,59.6,29.91,WNW,292,3.1,3.8,27,0.00,,---,0.00,VWS V14.01,2013-06-20 16:05:00,
2013-06-20 12:08:00,100.2,59.2,29.91,NW,315,1.1,3.1,26,0.00,,---,0.00,VWS V14.01,2013-06-20 16:08:00,
2013-06-20 12:10:00,100.9,59.8,29.91,WSW,248,1.3,3.1,26,0.00,,---,0.00,VWS V14.01,2013-06-20 16:10:00,
2013-06-20 12:13:00,99.3,58.4,29.91,WSW,248,2.5,4.3,26,0.00,,---,0.00,VWS V14.01,2013-06-20 16:13:00,
2013-06-20 12:15:00,99.3,58.4,29.91,SW,225,1.6,4.3,26,0.00,,---,0.00,VWS V14.01,2013-06-20 16:15:00,
2013-06-20 12:18:00,99.9,58.9,29.91,West,270,2.7,3.1,26,0.00,,---,0.00,VWS V14.01,2013-06-20 16:18:00,
2013-06-20 12:20:00,99.9,58.9,29.91,NW,315,2.0,3.8,26,0.00,,---,0.00,VWS V14.01,2013-06-20 16:20:00,
2013-06-20 12:23:00,100.4,59.3,29.91,ENE,68,1.3,2.0,26,0.00,,---,0.00,VWS V14.01,2013-06-20 16:23:00,
2013-06-20 12:25:00,100.4,59.3,29.91,NW,315,2.5,2.5,26,0.00,,---,0.00,VWS V14.01,2013-06-20 16:25:00,
2013-06-20 12:28:00,101.1,59.9,29.91,SE,135,2.7,3.1,26,0.00,,---,0.00,VWS V14.01,2013-06-20 16:28:00,
2013-06-20 12:30:00,100.4,58.2,29.91,SW,225,1.1,3.1,25,0.00,,---,0.00,VWS V14.01,2013-06-20 16:30:00,
2013-06-20 12:33:00,100.4,58.2,29.91,North,0,2.5,3.8,25,0.00,,---,0.00,VWS V14.01,2013-06-20 16:33:00,
2013-06-20 12:35:00,100.9,58.7,29.91,SE,135,0.0,3.8,25,0.00,,---,0.00,VWS V14.01,2013-06-20 16:35:00,
2013-06-20 12:38:00,101.5,60.2,29.91,WSW,248,1.3,2.2,26,0.00,,---,0.00,VWS V14.01,2013-06-20 16:38:00,
2013-06-20 12:40:00,102.0,60.7,29.91,WSW,248,1.3,2.2,26,0.00,,---,0.00,VWS V14.01,2013-06-20 16:40:00,
2013-06-20 12:43:00,101.3,59.0,29.91,North,0,1.6,3.4,25,0.00,,---,0.00,VWS V14.01,2013-06-20 16:43:00,
2013-06-20 12:45:00,101.5,59.1,29.91,WSW,248,2.7,3.4,25,0.00,,---,0.00,VWS V14.01,2013-06-20 16:45:00,
2013-06-20 12:48:00,101.7,59.3,29.91,NNW,338,0.0,2.7,25,0.00,,---,0.00,VWS V14.01,2013-06-20 16:48:00,
2013-06-20 12:50:00,101.7,59.3,29.91,NNW,338,2.9,3.1,25,0.00,,---,0.00,VWS V14.01,2013-06-20 16:50:00,
2013-06-20 12:53:00,101.3,59.0,29.91,WSW,248,0.9,2.9,25,0.00,,---,0.00,VWS V14.01,2013-06-20 16:53:00,
2013-06-20 12:55:00,100.9,58.7,29.91,NNE,22,1.6,3.4,25,0.00,,---,0.00,VWS V14.01,2013-06-20 16:55:00,
2013-06-20 12:58:00,100.9,58.7,29.91,West,270,1.3,2.5,25,0.00,,---,0.00,VWS V14.01,2013-06-20 16:58:00,
2013-06-20 13:00:00,100.0,57.9,29.88,NW,315,2.5,3.4,25,0.00,,---,0.00,VWS V14.01,2013-06-20 17:00:00,
2013-06-20 13:03:00,99.5,57.5,29.88,West,270,0.9,5.4,25,0.00,,---,0.00,VWS V14.01,2013-06-20 17:03:00,
2013-06-20 13:05:00,100.0,57.9,29.88,NW,315,0.0,5.4,25,0.00,,---,0.00,VWS V14.01,2013-06-20 17:05:00,
2013-06-20 13:08:00,100.6,57.2,29.88,ENE,68,4.7,4.7,24,0.00,,---,0.00,VWS V14.01,2013-06-20 17:08:00,
2013-06-20 13:10:00,100.0,57.9,29.88,West,270,1.3,4.7,25,0.00,,---,0.00,VWS V14.01,2013-06-20 17:10:00,
2013-06-20 13:13:00,101.7,59.3,29.88,NE,45,2.9,3.4,25,0.00,,---,0.00,VWS V14.01,2013-06-20 17:13:00,
2013-06-20 13:15:00,102.0,59.6,29.91,WNW,292,2.7,3.4,25,0.00,,---,0.00,VWS V14.01,2013-06-20 17:15:00,
2013-06-20 13:18:00,101.7,58.2,29.91,WSW,248,0.0,2.9,24,0.00,,---,0.00,VWS V14.01,2013-06-20 17:18:00,
2013-06-20 13:20:00,101.8,58.3,29.91,NNE,22,2.5,2.9,24,0.00,,---,0.00,VWS V14.01,2013-06-20 17:20:00,
2013-06-20 13:23:00,102.2,57.4,29.91,NNW,338,2.0,4.3,23,0.00,,---,0.00,VWS V14.01,2013-06-20 17:23:00,
2013-06-20 13:25:00,101.8,57.1,29.91,North,0,2.0,4.3,23,0.00,,---,0.00,VWS V14.01,2013-06-20 17:25:00,
2013-06-20 13:28:00,102.6,58.9,29.91,NW,315,2.5,2.5,24,0.00,,---,0.00,VWS V14.01,2013-06-20 17:28:00,
2013-06-20 13:30:00,101.7,58.2,29.88,WNW,292,3.6,3.6,24,0.00,,---,0.00,VWS V14.01,2013-06-20 17:30:00,
2013-06-20 13:33:00,101.7,58.2,29.88,WNW,292,2.5,3.6,24,0.00,,---,0.00,VWS V14.01,2013-06-20 17:33:00,
2013-06-20 13:35:00,100.8,55.0,29.88,West,270,2.9,5.6,22,0.00,,---,0.00,VWS V14.01,2013-06-20 17:35:00,
2013-06-20 13:38:00,101.1,56.5,29.88,SW,225,2.5,4.3,23,0.00,,---,0.00,VWS V14.01,2013-06-20 17:38:00,
2013-06-20 13:40:00,99.5,55.2,29.88,North,0,2.2,4.3,23,0.00,,---,0.00,VWS V14.01,2013-06-20 17:40:00,
2013-06-20 13:43:00,100.4,57.1,29.88,WSW,248,0.0,2.5,24,0.00,,---,0.00,VWS V14.01,2013-06-20 17:43:00,
2013-06-20 13:45:00,99.3,55.0,29.88,SSE,158,3.1,3.1,23,0.00,,---,0.00,VWS V14.01,2013-06-20 17:45:00,
2013-06-20 13:48:00,100.4,57.1,29.88,SW,225,0.9,3.8,24,0.00,,---,0.00,VWS V14.01,2013-06-20 17:48:00,
2013-06-20 13:50:00,100.8,56.2,29.88,East,90,2.5,3.8,23,0.00,,---,0.00,VWS V14.01,2013-06-20 17:50:00,
2013-06-20 13:53:00,100.2,58.1,29.88,South,180,1.1,2.5,25,0.00,,---,0.00,VWS V14.01,2013-06-20 17:53:00,
2013-06-20 13:55:00,100.0,55.6,29.88,WNW,292,1.6,4.7,23,0.00,,---,0.00,VWS V14.01,2013-06-20 17:55:00,
2013-06-20 13:58:00,101.1,57.7,29.88,West,270,1.3,3.1,24,0.00,,---,0.00,VWS V14.01,2013-06-20 17:58:00,
2013-06-20 14:00:00,100.4,58.2,29.88,SE,135,2.2,4.9,25,0.00,,---,0.00,VWS V14.01,2013-06-20 18:00:00,
2013-06-20 14:03:00,100.6,58.4,29.88,WNW,292,1.6,4.0,25,0.00,,---,0.00,VWS V14.01,2013-06-20 18:03:00,
2013-06-20 14:05:00,101.1,57.7,29.88,East,90,1.1,4.0,24,0.00,,---,0.00,VWS V14.01,2013-06-20 18:05:00,
2013-06-20 14:08:00,101.3,59.0,29.88,ENE,68,2.0,4.0,25,0.00,,---,0.00,VWS V14.01,2013-06-20 18:08:00,
2013-06-20 14:10:00,101.3,57.8,29.88,East,90,2.9,4.0,24,0.00,,---,0.00,VWS V14.01,2013-06-20 18:10:00,
2013-06-20 14:13:00,101.7,58.2,29.88,West,270,2.5,2.9,24,0.00,,---,0.00,VWS V14.01,2013-06-20 18:13:00,
2013-06-20 14:15:00,101.5,58.0,29.88,SW,225,2.0,3.6,24,0.00,,---,0.00,VWS V14.01,2013-06-20 18:15:00,
2013-06-20 14:18:00,101.3,57.8,29.88,SSW,202,1.1,2.9,24,0.00,,---,0.00,VWS V14.01,2013-06-20 18:18:00,
2013-06-20 14:20:00,101.5,56.8,29.88,West,270,4.0,4.0,23,0.00,,---,0.00,VWS V14.01,2013-06-20 18:20:00,
2013-06-20 14:23:00,101.5,55.6,29.88,NNW,338,2.0,4.0,22,0.00,,---,0.00,VWS V14.01,2013-06-20 18:23:00,
2013-06-20 14:25:00,102.0,57.3,29.88,ENE,68,2.0,4.0,23,0.00,,---,0.00,VWS V14.01,2013-06-20 18:25:00,
2013-06-20 14:28:00,99.7,55.3,29.88,West,270,1.6,3.4,23,0.00,,---,0.00,VWS V14.01,2013-06-20 18:28:00,
2013-06-20 14:30:00,101.1,56.5,29.88,WNW,292,2.5,3.4,23,0.00,,---,0.00,VWS V14.01,2013-06-20 18:30:00,
2013-06-20 14:33:00,99.3,56.2,29.88,NW,315,2.5,2.7,24,0.00,,---,0.00,VWS V14.01,2013-06-20 18:33:00,
2013-06-20 14:35:00,98.6,55.6,29.88,West,270,2.5,2.7,24,0.00,,---,0.00,VWS V14.01,2013-06-20 18:35:00,
2013-06-20 14:38:00,98.2,57.5,29.88,West,270,1.3,3.8,26,0.00,,---,0.00,VWS V14.01,2013-06-20 18:38:00,
2013-06-20 14:40:00,100.4,58.2,29.88,WNW,292,2.0,3.8,25,0.00,,---,0.00,VWS V14.01,2013-06-20 18:40:00,
2013-06-20 14:43:00,99.1,57.2,29.88,West,270,1.6,2.7,25,0.00,,---,0.00,VWS V14.01,2013-06-20 18:43:00,
2013-06-20 14:45:00,100.4,58.2,29.85,West,270,1.6,2.7,25,0.00,,---,0.00,VWS V14.01,2013-06-20 18:45:00,
2013-06-20 14:48:00,100.6,58.4,29.85,SSE,158,1.3,3.1,25,0.00,,---,0.00,VWS V14.01,2013-06-20 18:48:00,
2013-06-20 14:50:00,99.3,57.3,29.85,WSW,248,1.6,3.1,25,0.00,,---,0.00,VWS V14.01,2013-06-20 18:50:00,
2013-06-20 14:53:00,96.6,56.1,29.85,West,270,1.6,2.5,26,0.00,,---,0.00,VWS V14.01,2013-06-20 18:53:00,
2013-06-20 14:55:00,97.3,56.8,29.85,West,270,1.3,2.5,26,0.00,,---,0.00,VWS V14.01,2013-06-20 18:55:00,
2013-06-20 14:58:00,99.1,57.2,29.85,NNW,338,2.5,3.6,25,0.00,,---,0.00,VWS V14.01,2013-06-20 18:58:00,
2013-06-20 15:00:00,101.1,58.8,29.85,WNW,292,0.0,3.6,25,0.00,,---,0.00,VWS V14.01,2013-06-20 19:00:00,
2013-06-20 15:03:00,101.7,59.3,29.85,SW,225,2.2,3.1,25,0.00,,---,0.00,VWS V14.01,2013-06-20 19:03:00,
2013-06-20 15:05:00,102.0,59.6,29.85,NNW,338,2.7,3.1,25,0.00,,---,0.00,VWS V14.01,2013-06-20 19:05:00,
2013-06-20 15:08:00,102.4,58.8,29.85,North,0,2.2,4.0,24,0.00,,---,0.00,VWS V14.01,2013-06-20 19:08:00,
2013-06-20 15:10:00,102.7,59.0,29.85,NE,45,1.3,4.0,24,0.00,,---,0.00,VWS V14.01,2013-06-20 19:10:00,
2013-06-20 15:13:00,102.6,58.9,29.85,NW,315,2.0,2.7,24,0.00,,---,0.00,VWS V14.01,2013-06-20 19:13:00,
2013-06-20 15:15:00,102.7,59.0,29.85,West,270,4.0,4.0,24,0.00,,---,0.00,VWS V14.01,2013-06-20 19:15:00,
2013-06-20 15:18:00,100.9,56.4,29.85,West,270,2.7,4.0,23,0.00,,---,0.00,VWS V14.01,2013-06-20 19:18:00,
2013-06-20 15:20:00,101.5,56.8,29.85,West,270,2.9,4.0,23,0.00,,---,0.00,VWS V14.01,2013-06-20 19:20:00,
2013-06-20 15:23:00,97.9,53.8,29.85,NW,315,3.8,4.3,23,0.00,,---,0.00,VWS V14.01,2013-06-20 19:23:00,
2013-06-20 15:25:00,96.4,52.6,29.85,North,0,2.5,4.3,23,0.00,,---,0.00,VWS V14.01,2013-06-20 19:25:00,
2013-06-20 15:28:00,95.4,52.9,29.85,ESE,112,0.9,2.9,24,0.00,,---,0.00,VWS V14.01,2013-06-20 19:28:00,
2013-06-20 15:30:00,94.8,54.6,29.85,SW,225,1.1,2.9,26,0.00,,---,0.00,VWS V14.01,2013-06-20 19:30:00,
2013-06-20 15:33:00,97.7,57.0,29.85,West,270,1.3,2.0,26,0.00,,---,0.00,VWS V14.01,2013-06-20 19:33:00,
2013-06-20 15:35:00,97.3,56.8,29.85,SW,225,2.5,3.1,26,0.00,,---,0.00,VWS V14.01,2013-06-20 19:35:00,
2013-06-20 15:38:00,95.2,54.9,29.85,West,270,1.6,3.4,26,0.00,,---,0.00,VWS V14.01,2013-06-20 19:38:00,
2013-06-20 15:40:00,94.5,54.3,29.85,WNW,292,0.0,3.4,26,0.00,,---,0.00,VWS V14.01,2013-06-20 19:40:00,
2013-06-20 15:43:00,94.1,55.0,29.85,West,270,0.0,1.3,27,0.00,,---,0.00,VWS V14.01,2013-06-20 19:43:00,
2013-06-20 15:45:00,93.7,54.7,29.85,West,270,1.1,1.3,27,0.00,,---,0.00,VWS V14.01,2013-06-20 19:45:00,
2013-06-20 15:48:00,92.5,54.7,29.85,SSW,202,0.9,2.0,28,0.00,,---,0.00,VWS V14.01,2013-06-20 19:48:00,
2013-06-20 15:50:00,91.9,54.2,29.85,SSW,202,1.1,2.0,28,0.00,,---,0.00,VWS V14.01,2013-06-20 19:50:00,
2013-06-20 15:53:00,91.8,54.0,29.85,SSW,202,0.0,1.1,28,0.00,,---,0.00,VWS V14.01,2013-06-20 19:53:00,
2013-06-20 15:55:00,91.8,55.0,29.85,SW,225,1.1,1.6,29,0.00,,---,0.00,VWS V14.01,2013-06-20 19:55:00,
2013-06-20 15:58:00,91.2,54.5,29.85,WSW,248,0.0,2.5,29,0.00,,---,0.00,VWS V14.01,2013-06-20 19:58:00,
2013-06-20 16:00:00,91.0,55.3,29.85,SSW,202,0.0,2.5,30,0.00,,---,0.00,VWS V14.01,2013-06-20 20:00:00,
2013-06-20 16:03:00,91.0,55.3,29.85,SSW,202,0.0,0.0,30,0.00,,---,0.00,VWS V14.01,2013-06-20 20:03:00,
2013-06-20 16:05:00,90.9,56.1,29.85,SSW,202,0.0,0.0,31,0.00,,---,0.00,VWS V14.01,2013-06-20 20:05:00,
2013-06-20 16:08:00,90.7,56.8,29.85,South,180,0.0,0.0,32,0.00,,---,0.00,VWS V14.01,2013-06-20 20:08:00,
2013-06-20 16:10:00,90.5,57.5,29.85,South,180,0.0,0.0,33,0.00,,---,0.00,VWS V14.01,2013-06-20 20:10:00,
2013-06-20 16:13:00,90.5,57.5,29.85,South,180,0.0,0.0,33,0.00,,---,0.00,VWS V14.01,2013-06-20 20:13:00,
2013-06-20 16:15:00,90.7,57.7,29.82,South,180,0.0,0.0,33,0.00,,---,0.00,VWS V14.01,2013-06-20 20:15:00,
2013-06-20 16:18:00,90.9,57.8,29.82,South,180,0.0,0.0,33,0.00,,---,0.00,VWS V14.01,2013-06-20 20:18:00,
2013-06-20 16:20:00,90.7,58.5,29.82,South,180,0.0,0.0,34,0.00,,---,0.00,VWS V14.01,2013-06-20 20:20:00,
2013-06-20 16:23:00,90.9,58.6,29.82,SSE,158,0.0,0.0,34,0.00,,---,0.00,VWS V14.01,2013-06-20 20:23:00,
2013-06-20 16:25:00,90.7,58.5,29.82,SSE,158,0.0,0.0,34,0.00,,---,0.00,VWS V14.01,2013-06-20 20:25:00,
2013-06-20 16:28:00,91.2,59.8,29.82,South,180,0.0,0.0,35,0.00,,---,0.00,VWS V14.01,2013-06-20 20:28:00,
2013-06-20 16:30:00,91.8,59.4,29.82,SSW,202,0.0,0.0,34,0.00,,---,0.00,VWS V14.01,2013-06-20 20:30:00,
2013-06-20 16:33:00,94.5,60.9,29.82,SSE,158,2.5,2.5,33,0.00,,---,0.00,VWS V14.01,2013-06-20 20:33:00,
2013-06-20 16:35:00,95.4,60.9,29.82,ESE,112,1.6,2.7,32,0.00,,---,0.00,VWS V14.01,2013-06-20 20:35:00,
2013-06-20 16:38:00,96.8,61.2,29.82,SE,135,1.3,1.6,31,0.00,,---,0.00,VWS V14.01,2013-06-20 20:38:00,
2013-06-20 16:40:00,97.5,60.9,29.82,East,90,2.2,2.2,30,0.00,,---,0.00,VWS V14.01,2013-06-20 20:40:00,
2013-06-20 16:43:00,97.0,59.5,29.82,SW,225,1.3,3.4,29,0.00,,---,0.00,VWS V14.01,2013-06-20 20:43:00,
2013-06-20 16:45:00,95.0,58.7,29.82,West,270,0.9,3.4,30,0.00,,---,0.00,VWS V14.01,2013-06-20 20:45:00,
2013-06-20 16:48:00,96.1,57.7,29.82,West,270,1.3,3.1,28,0.00,,---,0.00,VWS V14.01,2013-06-20 20:48:00,
2013-06-20 16:50:00,95.4,57.1,29.82,WSW,248,4.0,4.0,28,0.00,,---,0.00,VWS V14.01,2013-06-20 20:50:00,
2013-06-20 16:53:00,95.0,56.8,29.82,West,270,2.0,4.0,28,0.00,,---,0.00,VWS V14.01,2013-06-20 20:53:00,
2013-06-20 16:55:00,96.1,57.7,29.82,SSW,202,0.0,4.0,28,0.00,,---,0.00,VWS V14.01,2013-06-20 20:55:00,
2013-06-20 16:58:00,97.3,57.8,29.82,NNW,338,2.5,3.8,27,0.00,,---,0.00,VWS V14.01,2013-06-20 20:58:00,
2013-06-20 17:00:00,98.2,57.5,29.82,North,0,2.5,4.3,26,0.00,,---,0.00,VWS V14.01,2013-06-20 21:00:00,
2013-06-20 17:03:00,99.1,58.3,29.82,West,270,3.4,4.0,26,0.00,,---,0.00,VWS V14.01,2013-06-20 21:03:00,
2013-06-20 17:05:00,99.7,58.7,29.82,WSW,248,3.1,4.0,26,0.00,,---,0.00,VWS V14.01,2013-06-20 21:05:00,
2013-06-20 17:08:00,100.0,57.9,29.82,West,270,2.2,3.6,25,0.00,,---,0.00,VWS V14.01,2013-06-20 21:08:00,
2013-06-20 17:10:00,100.2,57.0,29.82,WNW,292,2.0,4.0,24,0.00,,---,0.00,VWS V14.01,2013-06-20 21:10:00,
2013-06-20 17:13:00,99.5,54.0,29.82,WNW,292,2.0,4.3,22,0.00,,---,0.00,VWS V14.01,2013-06-20 21:13:00,
2013-06-20 17:15:00,100.2,55.8,29.85,West,270,1.3,4.3,23,0.00,,---,0.00,VWS V14.01,2013-06-20 21:15:00,
2013-06-20 17:18:00,100.9,55.2,29.85,North,0,2.2,2.9,22,0.00,,---,0.00,VWS V14.01,2013-06-20 21:18:00,
2013-06-20 17:20:00,101.1,55.3,29.85,NNW,338,2.0,2.9,22,0.00,,---,0.00,VWS V14.01,2013-06-20 21:20:00,
2013-06-20 17:23:00,100.9,53.9,29.85,NNW,338,2.7,4.0,21,0.00,,---,0.00,VWS V14.01,2013-06-20 21:23:00,
2013-06-20 17:25:00,100.9,53.9,29.85,WNW,292,2.5,4.0,21,0.00,,---,0.00,VWS V14.01,2013-06-20 21:25:00,
2013-06-20 17:28:00,101.3,54.2,29.85,WNW,292,3.6,4.0,21,0.00,,---,0.00,VWS V14.01,2013-06-20 21:28:00,
2013-06-20 17:30:00,100.9,52.5,29.82,West,270,2.9,4.0,20,0.00,,---,0.00,VWS V14.01,2013-06-20 21:30:00,
2013-06-20 17:33:00,100.8,52.4,29.82,NW,315,1.6,3.1,20,0.00,,---,0.00,VWS V14.01,2013-06-20 21:33:00,
2013-06-20 17:35:00,101.1,52.7,29.82,WNW,292,1.6,3.1,20,0.00,,---,0.00,VWS V14.01,2013-06-20 21:35:00,
2013-06-20 17:38:00,102.0,53.4,29.82,SW,225,1.1,2.7,20,0.00,,---,0.00,VWS V14.01,2013-06-20 21:38:00,
2013-06-20 17:40:00,102.2,52.2,29.82,North,0,4.3,4.9,19,0.00,,---,0.00,VWS V14.01,2013-06-20 21:40:00,
2013-06-20 17:43:00,98.2,52.9,29.82,East,90,7.4,10.5,22,0.00,,---,0.00,VWS V14.01,2013-06-20 21:43:00,
2013-06-20 17:45:00,94.3,53.1,29.85,NE,45,5.4,12.8,25,0.00,,---,0.00,VWS V14.01,2013-06-20 21:45:00,
2013-06-20 17:48:00,92.7,54.8,29.85,East,90,5.8,9.6,28,0.00,,---,0.00,VWS V14.01,2013-06-20 21:48:00,
2013-06-20 17:50:00,91.4,53.8,29.85,East,90,5.6,10.5,28,0.00,,---,0.00,VWS V14.01,2013-06-20 21:50:00,
2013-06-20 17:53:00,91.2,54.5,29.85,East,90,8.1,8.7,29,0.00,,---,0.00,VWS V14.01,2013-06-20 21:53:00,
2013-06-20 17:55:00,89.2,53.8,29.85,East,90,10.5,15.2,30,0.00,,---,0.00,VWS V14.01,2013-06-20 21:55:00,
2013-06-20 17:58:00,89.1,54.5,29.85,East,90,6.0,10.5,31,0.00,,---,0.00,VWS V14.01,2013-06-20 21:58:00,
2013-06-20 18:00:00,88.2,53.7,29.85,East,90,5.8,10.5,31,0.00,,---,0.00,VWS V14.01,2013-06-20 22:00:00,
2013-06-20 18:03:00,87.3,53.8,29.85,East,90,3.1,5.8,32,0.00,,---,0.00,VWS V14.01,2013-06-20 22:03:00,
2013-06-20 18:05:00,87.1,54.5,29.85,East,90,6.0,6.0,33,0.00,,---,0.00,VWS V14.01,2013-06-20 22:05:00,
2013-06-20 18:08:00,86.7,55.0,29.85,East,90,4.3,6.0,34,0.00,,---,0.00,VWS V14.01,2013-06-20 22:08:00,
2013-06-20 18:10:00,87.8,56.8,29.85,ENE,68,1.1,6.0,35,0.00,,---,0.00,VWS V14.01,2013-06-20 22:10:00,
2013-06-20 18:13:00,88.7,57.6,29.85,SE,135,5.6,6.0,35,0.00,,---,0.00,VWS V14.01,2013-06-20 22:13:00,
2013-06-20 18:15:00,88.7,56.8,29.85,ENE,68,4.3,6.3,34,0.00,,---,0.00,VWS V14.01,2013-06-20 22:15:00,
2013-06-20 18:18:00,88.7,56.8,29.85,East,90,6.3,8.7,34,0.00,,---,0.00,VWS V14.01,2013-06-20 22:18:00,
2013-06-20 18:20:00,88.3,55.6,29.85,ESE,112,7.2,8.7,33,0.00,,---,0.00,VWS V14.01,2013-06-20 22:20:00,
2013-06-20 18:23:00,88.2,55.5,29.85,East,90,10.7,13.2,33,0.00,,---,0.00,VWS V14.01,2013-06-20 22:23:00,
2013-06-20 18:25:00,87.1,55.3,29.85,East,90,6.9,14.8,34,0.00,,---,0.00,VWS V14.01,2013-06-20 22:25:00,
2013-06-20 18:28:00,87.1,56.1,29.85,East,90,13.0,13.0,35,0.00,,---,0.00,VWS V14.01,2013-06-20 22:28:00,
2013-06-20 18:30:00,86.4,55.5,29.85,East,90,10.7,13.0,35,0.00,,---,0.00,VWS V14.01,2013-06-20 22:30:00,
2013-06-20 18:33:00,85.8,55.8,29.85,East,90,5.8,10.7,36,0.00,,---,0.00,VWS V14.01,2013-06-20 22:33:00,
2013-06-20 18:35:00,85.5,56.2,29.85,East,90,6.3,11.0,37,0.00,,---,0.00,VWS V14.01,2013-06-20 22:35:00,
2013-06-20 18:38:00,85.6,57.1,29.85,East,90,5.6,10.1,38,0.00,,---,0.00,VWS V14.01,2013-06-20 22:38:00,
2013-06-20 18:40:00,84.6,55.5,29.85,East,90,10.7,12.5,37,0.00,,---,0.00,VWS V14.01,2013-06-20 22:40:00,
2013-06-20 18:43:00,84.0,56.4,29.85,ENE,68,10.3,10.7,39,0.00,,---,0.00,VWS V14.01,2013-06-20 22:43:00,
2013-06-20 18:45:00,82.9,55.5,29.88,SW,225,2.7,10.7,39,0.00,,---,0.00,VWS V14.01,2013-06-20 22:45:00,
2013-06-20 18:48:00,82.8,55.3,29.88,SE,135,4.0,4.0,39,0.00,,---,0.00,VWS V14.01,2013-06-20 22:48:00,
2013-06-20 18:50:00,82.2,55.5,29.88,South,180,1.1,4.0,40,0.00,,---,0.00,VWS V14.01,2013-06-20 22:50:00,
2013-06-20 18:53:00,81.5,56.2,29.88,ESE,112,9.6,10.1,42,0.00,,---,0.00,VWS V14.01,2013-06-20 22:53:00,
2013-06-20 18:55:00,81.0,55.7,29.88,SSE,158,7.4,10.1,42,0.00,,---,0.00,VWS V14.01,2013-06-20 22:55:00,
2013-06-20 18:58:00,80.6,56.1,29.88,East,90,3.4,7.8,43,0.00,,---,0.00,VWS V14.01,2013-06-20 22:58:00,
2013-06-20 19:00:00,80.4,56.5,29.91,SE,135,2.0,7.8,44,0.00,,---,0.00,VWS V14.01,2013-06-20 23:00:00,
2013-06-20 19:03:00,80.2,57.6,29.91,SE,135,2.2,5.4,46,0.00,,---,0.00,VWS V14.01,2013-06-20 23:03:00,
2013-06-20 19:05:00,80.2,58.2,29.91,North,0,1.3,5.6,47,0.00,,---,0.00,VWS V14.01,2013-06-20 23:05:00,
2013-06-20 19:08:00,80.1,58.0,29.91,NNW,338,1.1,3.6,47,0.00,,---,0.00,VWS V14.01,2013-06-20 23:08:00,
2013-06-20 19:10:00,80.1,58.0,29.91,SE,135,0.9,3.6,47,0.00,,---,0.00,VWS V14.01,2013-06-20 23:10:00,
2013-06-20 19:13:00,79.9,58.5,29.91,South,180,1.3,2.9,48,0.00,,---,0.00,VWS V14.01,2013-06-20 23:13:00,
2013-06-20 19:15:00,79.9,58.5,29.91,South,180,2.7,2.9,48,0.00,,---,0.00,VWS V14.01,2013-06-20 23:15:00,
2013-06-20 19:18:00,79.9,59.0,29.91,SSW,202,1.3,2.9,49,0.00,,---,0.00,VWS V14.01,2013-06-20 23:18:00,
2013-06-20 19:20:00,79.7,58.9,29.91,SW,225,0.9,2.9,49,0.00,,---,0.00,VWS V14.01,2013-06-20 23:20:00,
2013-06-20 19:23:00,79.3,59.1,29.91,South,180,2.0,3.1,50,0.00,,---,0.00,VWS V14.01,2013-06-20 23:23:00,
2013-06-20 19:25:00,79.2,58.9,29.91,North,0,2.2,3.1,50,0.00,,---,0.00,VWS V14.01,2013-06-20 23:25:00,
2013-06-20 19:28:00,79.0,59.3,29.91,North,0,0.0,3.8,51,0.00,,---,0.00,VWS V14.01,2013-06-20 23:28:00,
2013-06-20 19:30:00,79.0,59.3,29.91,SSW,202,0.0,3.8,51,0.00,,---,0.00,VWS V14.01,2013-06-20 23:30:00,
2013-06-20 19:33:00,78.6,59.5,29.91,WSW,248,1.1,2.2,52,0.00,,---,0.00,VWS V14.01,2013-06-20 23:33:00,
2013-06-20 19:35:00,78.4,59.9,29.91,NNE,22,1.1,2.2,53,0.00,,---,0.00,VWS V14.01,2013-06-20 23:35:00,
2013-06-20 19:38:00,78.3,60.8,29.91,SSE,158,4.5,4.5,55,0.00,,---,0.00,VWS V14.01,2013-06-20 23:38:00,
2013-06-20 19:40:00,78.1,62.1,29.91,ENE,68,2.7,4.5,58,0.00,,---,0.00,VWS V14.01,2013-06-20 23:40:00,
2013-06-20 19:43:00,77.7,60.8,29.91,NE,45,1.1,3.8,56,0.00,,---,0.00,VWS V14.01,2013-06-20 23:43:00,
2013-06-20 19:45:00,77.7,61.3,29.91,ENE,68,0.9,3.8,57,0.00,,---,0.00,VWS V14.01,2013-06-20 23:45:00,
2013-06-20 19:48:00,77.4,62.4,29.91,ESE,112,3.4,3.8,60,0.00,,---,0.00,VWS V14.01,2013-06-20 23:48:00,
2013-06-20 19:50:00,77.0,61.6,29.91,South,180,0.9,3.8,59,0.00,,---,0.00,VWS V14.01,2013-06-20 23:50:00,
2013-06-20 19:53:00,76.6,62.7,29.91,NNE,22,1.6,4.7,62,0.00,,---,0.00,VWS V14.01,2013-06-20 23:53:00,
2013-06-20 19:55:00,76.6,63.1,29.91,East,90,2.5,4.7,63,0.00,,---,0.00,VWS V14.01,2013-06-20 23:55:00,
2013-06-20 19:58:00,76.3,62.8,29.91,East,90,2.0,2.7,63,0.00,,---,0.00,VWS V14.01,2013-06-20 23:58:00,
2013-06-20 20:00:00,76.3,62.8,29.91,SSE,158,1.1,2.7,63,0.00,,---,0.00,VWS V14.01,2013-06-21 00:00:00,
2013-06-20 20:03:00,76.1,63.0,29.91,East,90,3.1,3.1,64,0.00,,---,0.00,VWS V14.01,2013-06-21 00:03:00,
2013-06-20 20:05:00,75.9,62.9,29.91,East,90,0.9,3.1,64,0.00,,---,0.00,VWS V14.01,2013-06-21 00:05:00,
2013-06-20 20:08:00,75.7,62.7,29.91,NNE,22,0.0,3.1,64,0.00,,---,0.00,VWS V14.01,2013-06-21 00:08:00,
2013-06-20 20:10:00,75.7,62.7,29.91,NNE,22,0.0,3.1,64,0.00,,---,0.00,VWS V14.01,2013-06-21 00:10:00,
2013-06-20 20:14:00,75.7,62.7,29.91,East,90,2.0,2.7,64,0.00,,---,0.00,VWS V14.01,2013-06-21 00:14:00,
2013-06-20 20:15:00,75.6,63.0,29.91,East,90,0.9,2.7,65,0.00,,---,0.00,VWS V14.01,2013-06-21 00:15:00,
2013-06-20 20:19:00,75.4,62.8,29.91,South,180,0.0,1.6,65,0.00,,---,0.00,VWS V14.01,2013-06-21 00:19:00,
2013-06-20 20:20:00,75.2,62.6,29.91,South,180,0.0,1.6,65,0.00,,---,0.00,VWS V14.01,2013-06-21 00:20:00,
2013-06-20 20:24:00,75.0,63.3,29.91,SSE,158,0.0,0.0,67,0.00,,---,0.00,VWS V14.01,2013-06-21 00:24:00,
2013-06-20 20:25:00,75.0,63.3,29.91,SE,135,0.9,1.1,67,0.00,,---,0.00,VWS V14.01,2013-06-21 00:25:00,
2013-06-20 20:29:00,75.0,63.3,29.91,East,90,1.3,1.6,67,0.00,,---,0.00,VWS V14.01,2013-06-21 00:29:00,
2013-06-20 20:30:00,74.8,63.2,29.88,East,90,1.3,2.7,67,0.00,,---,0.00,VWS V14.01,2013-06-21 00:30:00,
2013-06-20 20:34:00,74.7,63.8,29.88,East,90,1.1,2.7,69,0.00,,---,0.00,VWS V14.01,2013-06-21 00:34:00,
2013-06-20 20:35:00,74.5,63.2,29.88,East,90,0.0,2.7,68,0.00,,---,0.00,VWS V14.01,2013-06-21 00:35:00,
2013-06-20 20:39:00,74.5,63.2,29.88,East,90,0.0,0.0,68,0.00,,---,0.00,VWS V14.01,2013-06-21 00:39:00,
2013-06-20 20:40:00,74.3,63.1,29.88,NE,45,0.0,0.0,68,0.00,,---,0.00,VWS V14.01,2013-06-21 00:40:00,
2013-06-20 20:44:00,74.3,63.1,29.88,NE,45,0.0,0.0,68,0.00,,---,0.00,VWS V14.01,2013-06-21 00:44:00,
2013-06-20 20:45:00,74.3,63.1,29.88,NE,45,0.0,0.0,68,0.00,,---,0.00,VWS V14.01,2013-06-21 00:45:00,
2013-06-20 20:49:00,74.1,63.3,29.88,NNE,22,0.0,0.0,69,0.00,,---,0.00,VWS V14.01,2013-06-21 00:49:00,
2013-06-20 20:50:00,74.1,62.9,29.88,WNW,292,0.0,0.0,68,0.00,,---,0.00,VWS V14.01,2013-06-21 00:50:00,
2013-06-20 20:54:00,73.9,63.1,29.88,WNW,292,0.0,1.3,69,0.00,,---,0.00,VWS V14.01,2013-06-21 00:54:00,
2013-06-20 20:55:00,73.9,63.1,29.88,WNW,292,0.0,1.3,69,0.00,,---,0.00,VWS V14.01,2013-06-21 00:55:00,
2013-06-20 20:59:00,73.9,63.1,29.88,WSW,248,0.0,0.0,69,0.00,,---,0.00,VWS V14.01,2013-06-21 00:59:00,
2013-06-20 21:00:00,73.8,63.0,29.88,WSW,248,0.0,0.0,69,0.00,,---,0.00,VWS V14.01,2013-06-21 01:00:00,
2013-06-20 21:04:00,73.8,63.4,29.88,WSW,248,0.0,0.0,70,0.00,,---,0.00,VWS V14.01,2013-06-21 01:04:00,
2013-06-20 21:05:00,73.8,63.4,29.88,WSW,248,0.0,0.0,70,0.00,,---,0.00,VWS V14.01,2013-06-21 01:05:00,
2013-06-20 21:09:00,73.6,63.2,29.88,WSW,248,0.0,0.0,70,0.00,,---,0.00,VWS V14.01,2013-06-21 01:09:00,
2013-06-20 21:10:00,73.6,63.2,29.88,WSW,248,0.0,0.0,70,0.00,,---,0.00,VWS V14.01,2013-06-21 01:10:00,
2013-06-20 21:14:00,73.6,63.6,29.88,WNW,292,0.0,0.0,71,0.00,,---,0.00,VWS V14.01,2013-06-21 01:14:00,
2013-06-20 21:15:00,73.6,63.6,29.88,WNW,292,0.0,0.0,71,0.00,,---,0.00,VWS V14.01,2013-06-21 01:15:00,
2013-06-20 21:19:00,73.6,63.6,29.88,West,270,0.0,0.0,71,0.00,,---,0.00,VWS V14.01,2013-06-21 01:19:00,
2013-06-20 21:20:00,73.6,64.0,29.88,West,270,0.0,0.0,72,0.00,,---,0.00,VWS V14.01,2013-06-21 01:20:00,
2013-06-20 21:24:00,73.6,64.4,29.88,West,270,0.0,0.0,73,0.00,,---,0.00,VWS V14.01,2013-06-21 01:24:00,
2013-06-20 21:25:00,73.4,64.2,29.88,West,270,0.0,0.0,73,0.00,,---,0.00,VWS V14.01,2013-06-21 01:25:00,
2013-06-20 21:29:00,73.4,64.2,29.88,West,270,0.0,0.0,73,0.00,,---,0.00,VWS V14.01,2013-06-21 01:29:00,
2013-06-20 21:30:00,73.4,64.2,29.88,West,270,0.0,0.0,73,0.00,,---,0.00,VWS V14.01,2013-06-21 01:30:00,
2013-06-20 21:34:00,73.2,64.4,29.88,West,270,0.0,0.0,74,0.00,,---,0.00,VWS V14.01,2013-06-21 01:34:00,
2013-06-20 21:35:00,73.2,64.1,29.88,West,270,0.0,0.0,73,0.00,,---,0.00,VWS V14.01,2013-06-21 01:35:00,
2013-06-20 21:39:00,73.2,64.4,29.88,West,270,0.0,0.0,74,0.00,,---,0.00,VWS V14.01,2013-06-21 01:39:00,
2013-06-20 21:40:00,73.4,64.6,29.88,West,270,0.0,0.0,74,0.00,,---,0.00,VWS V14.01,2013-06-21 01:40:00,
2013-06-20 21:44:00,73.2,65.2,29.88,West,270,0.0,0.0,76,0.00,,---,0.00,VWS V14.01,2013-06-21 01:44:00,
2013-06-20 21:45:00,73.2,64.8,29.88,West,270,0.0,0.0,75,0.00,,---,0.00,VWS V14.01,2013-06-21 01:45:00,
2013-06-20 21:49:00,73.2,65.2,29.88,SSE,158,0.0,0.0,76,0.00,,---,0.00,VWS V14.01,2013-06-21 01:49:00,
2013-06-20 21:50:00,73.0,65.0,29.88,ENE,68,0.9,1.3,76,0.00,,---,0.00,VWS V14.01,2013-06-21 01:50:00,
2013-06-20 21:54:00,73.0,65.0,29.88,SSE,158,0.0,1.3,76,0.00,,---,0.00,VWS V14.01,2013-06-21 01:54:00,
2013-06-20 21:55:00,73.0,65.0,29.88,South,180,0.0,1.3,76,0.00,,---,0.00,VWS V14.01,2013-06-21 01:55:00,
2013-06-20 21:59:00,73.0,65.4,29.88,South,180,0.0,1.1,77,0.00,,---,0.00,VWS V14.01,2013-06-21 01:59:00,
2013-06-20 22:00:00,72.9,65.2,29.88,South,180,0.0,1.1,77,0.00,,---,0.00,VWS V14.01,2013-06-21 02:00:00,
2013-06-20 22:04:00,72.9,65.2,29.88,South,180,0.0,0.0,77,0.00,,---,0.00,VWS V14.01,2013-06-21 02:04:00,
2013-06-20 22:05:00,72.9,65.2,29.88,ENE,68,0.0,0.0,77,0.00,,---,0.00,VWS V14.01,2013-06-21 02:05:00,
2013-06-20 22:09:00,72.9,65.6,29.88,ENE,68,0.0,0.0,78,0.00,,---,0.00,VWS V14.01,2013-06-21 02:09:00,
2013-06-20 22:10:00,72.9,65.6,29.88,ENE,68,0.0,0.0,78,0.00,,---,0.00,VWS V14.01,2013-06-21 02:10:00,
2013-06-20 22:14:00,72.7,65.4,29.88,ENE,68,0.0,0.0,78,0.00,,---,0.00,VWS V14.01,2013-06-21 02:14:00,
2013-06-20 22:15:00,72.7,65.4,29.88,ENE,68,0.0,0.0,78,0.00,,---,0.00,VWS V14.01,2013-06-21 02:15:00,
2013-06-20 22:19:00,72.7,65.1,29.88,ENE,68,0.0,0.0,77,0.00,,---,0.00,VWS V14.01,2013-06-21 02:19:00,
2013-06-20 22:20:00,72.7,65.4,29.88,ENE,68,0.0,0.0,78,0.00,,---,0.00,VWS V14.01,2013-06-21 02:20:00,
2013-06-20 22:24:00,72.7,65.4,29.88,ENE,68,0.0,0.0,78,0.00,,---,0.00,VWS V14.01,2013-06-21 02:24:00,
2013-06-20 22:25:00,72.5,65.3,29.88,ENE,68,0.0,0.0,78,0.00,,---,0.00,VWS V14.01,2013-06-21 02:25:00,
2013-06-20 22:29:00,72.5,65.6,29.88,ENE,68,0.0,1.6,79,0.00,,---,0.00,VWS V14.01,2013-06-21 02:29:00,
2013-06-20 22:30:00,72.5,65.6,29.88,ENE,68,0.0,1.6,79,0.00,,---,0.00,VWS V14.01,2013-06-21 02:30:00,
2013-06-20 22:34:00,72.3,65.4,29.88,ENE,68,0.0,0.9,79,0.00,,---,0.00,VWS V14.01,2013-06-21 02:34:00,
2013-06-20 22:35:00,72.3,65.4,29.88,ENE,68,0.0,0.9,79,0.00,,---,0.00,VWS V14.01,2013-06-21 02:35:00,
2013-06-20 22:39:00,72.3,65.8,29.88,ENE,68,0.0,1.1,80,0.00,,---,0.00,VWS V14.01,2013-06-21 02:39:00,
2013-06-20 22:40:00,72.1,65.6,29.88,East,90,0.0,1.1,80,0.00,,---,0.00,VWS V14.01,2013-06-21 02:40:00,
2013-06-20 22:44:00,72.1,65.6,29.88,East,90,0.0,0.0,80,0.00,,---,0.00,VWS V14.01,2013-06-21 02:44:00,
2013-06-20 22:45:00,72.1,65.6,29.88,East,90,0.0,0.0,80,0.00,,---,0.00,VWS V14.01,2013-06-21 02:45:00,
2013-06-20 22:49:00,72.1,65.6,29.88,East,90,0.0,0.0,80,0.00,,---,0.00,VWS V14.01,2013-06-21 02:49:00,
2013-06-20 22:50:00,72.0,65.5,29.88,East,90,0.0,0.0,80,0.00,,---,0.00,VWS V14.01,2013-06-21 02:50:00,
2013-06-20 22:54:00,72.0,65.5,29.88,East,90,0.0,1.1,80,0.00,,---,0.00,VWS V14.01,2013-06-21 02:54:00,
2013-06-20 22:55:00,72.0,65.5,29.88,East,90,0.0,1.1,80,0.00,,---,0.00,VWS V14.01,2013-06-21 02:55:00,
2013-06-20 22:59:00,72.0,65.8,29.88,East,90,0.0,0.0,81,0.00,,---,0.00,VWS V14.01,2013-06-21 02:59:00,
2013-06-20 23:00:00,72.0,65.5,29.91,East,90,0.0,0.9,80,0.00,,---,0.00,VWS V14.01,2013-06-21 03:00:00,
2013-06-20 23:04:00,71.8,65.6,29.91,NNE,22,0.0,0.0,81,0.00,,---,0.00,VWS V14.01,2013-06-21 03:04:00,
2013-06-20 23:05:00,71.8,65.6,29.91,NNE,22,0.0,0.0,81,0.00,,---,0.00,VWS V14.01,2013-06-21 03:05:00,
2013-06-20 23:09:00,71.8,65.6,29.91,NNE,22,0.0,0.0,81,0.00,,---,0.00,VWS V14.01,2013-06-21 03:09:00,
2013-06-20 23:10:00,71.8,65.6,29.91,NNE,22,0.0,0.0,81,0.00,,---,0.00,VWS V14.01,2013-06-21 03:10:00,
2013-06-20 23:14:00,71.6,65.5,29.91,NW,315,1.1,1.3,81,0.00,,---,0.00,VWS V14.01,2013-06-21 03:14:00,
2013-06-20 23:15:00,71.6,65.5,29.91,NW,315,1.1,1.3,81,0.00,,---,0.00,VWS V14.01,2013-06-21 03:15:00,
2013-06-20 23:19:00,71.6,65.5,29.91,NW,315,0.9,1.3,81,0.00,,---,0.00,VWS V14.01,2013-06-21 03:19:00,
2013-06-20 23:20:00,71.8,66.0,29.91,NW,315,0.0,1.3,82,0.00,,---,0.00,VWS V14.01,2013-06-21 03:20:00,
2013-06-20 23:24:00,72.0,66.2,29.91,NW,315,0.0,0.0,82,0.00,,---,0.00,VWS V14.01,2013-06-21 03:24:00,
2013-06-20 23:25:00,72.0,66.5,29.91,NW,315,0.0,0.0,83,0.00,,---,0.00,VWS V14.01,2013-06-21 03:25:00,
2013-06-20 23:29:00,71.8,66.3,29.91,NW,315,0.0,0.0,83,0.00,,---,0.00,VWS V14.01,2013-06-21 03:29:00,
2013-06-20 23:30:00,71.8,66.0,29.91,NW,315,0.0,0.0,82,0.00,,---,0.00,VWS V14.01,2013-06-21 03:30:00,
2013-06-20 23:34:00,71.6,65.8,29.91,NW,315,0.0,0.0,82,0.00,,---,0.00,VWS V14.01,2013-06-21 03:34:00,
2013-06-20 23:35:00,71.6,66.2,29.91,NW,315,0.0,0.0,83,0.00,,---,0.00,VWS V14.01,2013-06-21 03:35:00,
2013-06-20 23:39:00,71.6,66.2,29.91,NW,315,0.0,0.0,83,0.00,,---,0.00,VWS V14.01,2013-06-21 03:39:00,
2013-06-20 23:40:00,71.6,66.2,29.91,NW,315,0.0,0.0,83,0.00,,---,0.00,VWS V14.01,2013-06-21 03:40:00,
2013-06-20 23:44:00,71.4,66.3,29.91,NW,315,0.0,0.0,84,0.00,,---,0.00,VWS V14.01,2013-06-21 03:44:00,
2013-06-20 23:45:00,71.4,66.3,29.91,NW,315,0.0,0.0,84,0.00,,---,0.00,VWS V14.01,2013-06-21 03:45:00,
2013-06-20 23:49:00,71.4,66.3,29.91,NW,315,0.0,0.0,84,0.00,,---,0.00,VWS V14.01,2013-06-21 03:49:00,
2013-06-20 23:50:00,71.4,66.3,29.91,NW,315,0.0,0.0,84,0.00,,---,0.00,VWS V14.01,2013-06-21 03:50:00,
2013-06-20 23:54:00,71.4,66.3,29.91,NW,315,0.0,0.0,84,0.00,,---,0.00,VWS V14.01,2013-06-21 03:54:00,
2013-06-20 23:55:00,71.4,66.7,29.91,NW,315,0.0,0.0,85,0.00,,---,0.00,VWS V14.01,2013-06-21 03:55:00,
2013-06-20 23:59:00,71.1,66.3,29.91,NW,315,0.0,0.0,85,0.00,,---,0.00,VWS V14.01,2013-06-21 03:59:00,